TimeCDT,TemperatureF,Dew PointF,Humidity,Sea Level PressureIn,VisibilityMPH,Wind Direction,Wind SpeedMPH,Gust SpeedMPH,PrecipitationIn,Events,Conditions,WindDirDegrees,DateUTC
12:15 AM,75.2,60.8,61,29.92,10.0,SSW,8.1,-,N/A,,Clear,200,2013-09-10 05:15:00
12:35 AM,73.4,60.8,65,29.92,10.0,SSW,6.9,-,N/A,,Clear,200,2013-09-10 05:35:00
12:55 AM,73.4,60.8,65,29.92,10.0,SSW,6.9,-,N/A,,Clear,210,2013-09-10 05:55:00
1:15 AM,73.4,60.8,65,29.93,10.0,SSW,8.1,-,N/A,,Clear,200,2013-09-10 06:15:00
1:35 AM,75.2,60.8,61,29.93,10.0,SSW,8.1,-,N/A,,Clear,200,2013-09-10 06:35:00
1:55 AM,73.4,60.8,65,29.93,10.0,SSW,6.9,-,N/A,,Clear,200,2013-09-10 06:55:00
2:15 AM,73.4,60.8,65,29.94,10.0,SSW,9.2,-,N/A,,Clear,200,2013-09-10 07:15:00
2:35 AM,75.2,60.8,61,29.94,10.0,SSW,8.1,-,N/A,,Clear,210,2013-09-10 07:35:00
2:55 AM,73.4,60.8,65,29.94,10.0,SSW,9.2,-,N/A,,Clear,210,2013-09-10 07:55:00
3:15 AM,75.2,60.8,61,29.95,10.0,SSW,8.1,-,N/A,,Clear,210,2013-09-10 08:15:00
3:35 AM,75.2,60.8,61,29.95,10.0,SSW,8.1,-,N/A,,Clear,210,2013-09-10 08:35:00
3:55 AM,73.4,60.8,65,29.95,10.0,SSW,6.9,-,N/A,,Clear,210,2013-09-10 08:55:00
4:15 AM,73.4,60.8,65,29.95,10.0,SSW,8.1,-,N/A,,Clear,210,2013-09-10 09:15:00
4:35 AM,73.4,60.8,65,29.96,10.0,SSW,8.1,-,N/A,,Clear,210,2013-09-10 09:35:00
4:55 AM,71.6,60.8,69,29.96,10.0,SSW,6.9,-,N/A,,Clear,210,2013-09-10 09:55:00
5:15 AM,69.8,60.8,73,29.96,10.0,SSW,6.9,-,N/A,,Clear,200,2013-09-10 10:15:00
5:35 AM,68.0,60.8,78,29.96,10.0,SSW,8.1,-,N/A,,Clear,200,2013-09-10 10:35:00
5:55 AM,68.0,60.8,78,29.97,10.0,SSW,6.9,-,N/A,,Partly Cloudy,200,2013-09-10 10:55:00
6:15 AM,68.0,60.8,78,29.97,10.0,SSW,6.9,-,N/A,,Clear,200,2013-09-10 11:15:00
6:35 AM,68.0,60.8,78,29.98,8.0,SSW,6.9,-,N/A,,Clear,200,2013-09-10 11:35:00
6:55 AM,68.0,60.8,78,29.98,6.0,SSW,6.9,-,N/A,,Haze,200,2013-09-10 11:55:00
7:15 AM,68.0,62.6,83,29.99,6.0,SSW,8.1,-,N/A,,Haze,200,2013-09-10 12:15:00
7:35 AM,69.8,62.6,78,29.99,7.0,SSW,8.1,-,N/A,,Clear,200,2013-09-10 12:35:00
7:55 AM,71.6,62.6,73,29.99,7.0,SSW,9.2,-,N/A,,Clear,200,2013-09-10 12:55:00
8:15 AM,73.4,62.6,69,30.00,7.0,SSW,9.2,-,N/A,,Clear,200,2013-09-10 13:15:00
8:35 AM,75.2,62.6,65,30.00,8.0,SW,9.2,-,N/A,,Clear,220,2013-09-10 13:35:00
8:55 AM,78.8,64.4,61,30.00,9.0,SSW,12.7,18.4,N/A,,Clear,210,2013-09-10 13:55:00
9:15 AM,80.6,62.6,54,30.00,10.0,SSW,12.7,20.7,N/A,,Clear,210,2013-09-10 14:15:00
9:35 AM,80.6,64.4,58,30.00,10.0,SSW,16.1,-,N/A,,Clear,210,2013-09-10 14:35:00
9:55 AM,84.2,64.4,51,30.01,10.0,SSW,13.8,20.7,N/A,,Clear,210,2013-09-10 14:55:00
10:15 AM,86.0,64.4,48,30.00,10.0,SSW,15.0,23.0,N/A,,Clear,210,2013-09-10 15:15:00
10:35 AM,86.0,62.6,45,30.00,9.0,SW,16.1,-,N/A,,Clear,220,2013-09-10 15:35:00
10:55 AM,87.8,64.4,46,30.00,9.0,SW,16.1,21.9,N/A,,Clear,220,2013-09-10 15:55:00
11:15 AM,89.6,64.4,43,30.00,10.0,SSW,15.0,23.0,N/A,,Clear,210,2013-09-10 16:15:00
11:35 AM,89.6,64.4,43,29.99,10.0,SSW,17.3,23.0,N/A,,Clear,210,2013-09-10 16:35:00
11:55 AM,91.4,64.4,41,29.99,10.0,SW,17.3,-,N/A,,Clear,220,2013-09-10 16:55:00
12:15 PM,91.4,62.6,38,29.99,10.0,SW,15.0,27.6,N/A,,Clear,230,2013-09-10 17:15:00
12:35 PM,93.2,64.4,38,29.99,10.0,SW,16.1,26.5,N/A,,Clear,230,2013-09-10 17:35:00
12:55 PM,93.2,62.6,36,29.99,10.0,SW,12.7,25.3,N/A,,Clear,230,2013-09-10 17:55:00
1:15 PM,95.0,62.6,34,29.99,10.0,SW,16.1,26.5,N/A,,Clear,220,2013-09-10 18:15:00
1:35 PM,95.0,62.6,34,29.99,10.0,WSW,15.0,26.5,N/A,,Clear,240,2013-09-10 18:35:00
1:55 PM,95.0,62.6,34,29.98,10.0,SW,12.7,-,N/A,,Partly Cloudy,220,2013-09-10 18:55:00
2:15 PM,93.2,60.8,34,29.98,10.0,SW,16.1,-,N/A,,Partly Cloudy,230,2013-09-10 19:15:00
2:35 PM,95.0,60.8,32,29.97,10.0,SW,18.4,26.5,N/A,,Partly Cloudy,220,2013-09-10 19:35:00
2:55 PM,95.0,60.8,32,29.97,10.0,SSW,17.3,24.2,N/A,,Clear,210,2013-09-10 19:55:00
3:15 PM,95.0,59.0,30,29.96,10.0,SW,15.0,26.5,N/A,,Clear,230,2013-09-10 20:15:00
3:35 PM,95.0,59.0,30,29.96,10.0,WSW,19.6,27.6,N/A,,Clear,240,2013-09-10 20:35:00
3:55 PM,95.0,59.0,30,29.96,10.0,SW,12.7,24.2,N/A,,Clear,230,2013-09-10 20:55:00
4:15 PM,95.0,60.8,32,29.96,10.0,WSW,17.3,25.3,N/A,,Clear,240,2013-09-10 21:15:00
4:35 PM,95.0,59.0,30,29.96,10.0,SW,16.1,23.0,N/A,,Clear,230,2013-09-10 21:35:00
4:55 PM,95.0,60.8,32,29.95,10.0,SW,15.0,21.9,N/A,,Clear,230,2013-09-10 21:55:00
5:15 PM,95.0,60.8,32,29.95,10.0,WSW,12.7,24.2,N/A,,Clear,240,2013-09-10 22:15:00
5:35 PM,93.2,60.8,34,29.95,10.0,SW,12.7,19.6,N/A,,Clear,230,2013-09-10 22:35:00
5:55 PM,93.2,60.8,34,29.95,10.0,SW,10.4,19.6,N/A,,Clear,220,2013-09-10 22:55:00
6:15 PM,93.2,60.8,34,29.95,10.0,SW,9.2,15.0,N/A,,Clear,220,2013-09-10 23:15:00
6:35 PM,91.4,60.8,36,29.96,10.0,SW,8.1,-,N/A,,Clear,220,2013-09-10 23:35:00
6:55 PM,89.6,62.6,40,29.96,10.0,SW,6.9,-,N/A,,Clear,220,2013-09-10 23:55:00
7:15 PM,87.8,62.6,43,29.96,9.0,SSW,6.9,-,N/A,,Clear,210,2013-09-11 00:15:00
7:35 PM,86.0,60.8,43,29.97,10.0,SSW,6.9,-,N/A,,Clear,210,2013-09-11 00:35:00
7:55 PM,80.6,62.6,54,29.97,7.0,SSW,6.9,-,N/A,,Clear,200,2013-09-11 00:55:00
8:15 PM,80.6,64.4,58,29.99,6.0,SSW,6.9,-,N/A,,Haze,200,2013-09-11 01:15:00
8:35 PM,78.8,64.4,61,29.99,9.0,South,6.9,-,N/A,,Clear,190,2013-09-11 01:35:00
8:55 PM,78.8,64.4,61,30.00,10.0,SSW,6.9,-,N/A,,Clear,200,2013-09-11 01:55:00
9:15 PM,78.8,62.6,57,30.01,10.0,SSW,6.9,-,N/A,,Clear,200,2013-09-11 02:15:00
9:35 PM,77.0,62.6,61,30.01,10.0,SSW,8.1,-,N/A,,Clear,200,2013-09-11 02:35:00
9:55 PM,77.0,64.4,65,30.02,10.0,SSW,8.1,-,N/A,,Clear,200,2013-09-11 02:55:00
10:15 PM,77.0,64.4,65,30.02,10.0,SSW,8.1,-,N/A,,Clear,200,2013-09-11 03:15:00
10:35 PM,77.0,64.4,65,30.03,10.0,SSW,6.9,-,N/A,,Clear,200,2013-09-11 03:35:00
10:55 PM,77.0,64.4,65,30.03,10.0,SSW,9.2,-,N/A,,Clear,200,2013-09-11 03:55:00
11:15 PM,77.0,64.4,65,30.02,10.0,SSW,10.4,-,N/A,,Clear,200,2013-09-11 04:15:00
11:35 PM,77.0,64.4,65,30.03,10.0,SSW,9.2,-,N/A,,Clear,200,2013-09-11 04:35:00
11:55 PM,77.0,64.4,65,30.03,10.0,SSW,10.4,-,N/A,,Clear,200,2013-09-11 04:55:00